TimeMST,TemperatureF,Dew PointF,Humidity,Sea Level PressureIn,VisibilityMPH,Wind Direction,Wind SpeedMPH,Gust SpeedMPH,PrecipitationIn,Events,Conditions,WindDirDegrees,DateUTC
12:11 AM,-2.2,-5.8,85,30.48,9.0,Calm,Calm,-,N/A,,Mostly Cloudy,0,2013-01-18 07:11:00
12:53 AM,-6.0,-9.9,83,30.79,10.0,North,4.6,-,N/A,,Mostly Cloudy,360,2013-01-18 07:53:00
1:36 AM,-4.0,-7.6,85,30.48,1.8,NE,4.6,-,N/A,,Overcast,50,2013-01-18 08:36:00
1:53 AM,-4.0,-8.0,83,30.77,1.5,ENE,4.6,-,N/A,,Overcast,60,2013-01-18 08:53:00
1:57 AM,-4.0,-7.6,85,30.48,3.0,NE,5.8,-,N/A,,Overcast,50,2013-01-18 08:57:00
2:53 AM,-7.1,-11.0,83,30.78,4.0,North,5.8,-,N/A,,Overcast,360,2013-01-18 09:53:00
3:50 AM,-7.6,-11.2,84,30.47,10.0,North,6.9,-,N/A,,Scattered Clouds,10,2013-01-18 10:50:00
3:53 AM,-8.0,-11.9,83,30.78,10.0,North,6.9,-,N/A,,Scattered Clouds,360,2013-01-18 10:53:00
4:53 AM,-8.0,-14.1,75,30.73,10.0,Calm,Calm,-,N/A,,Clear,0,2013-01-18 11:53:00
5:37 AM,-7.6,-14.8,71,30.44,5.0,ENE,5.8,-,N/A,,Haze,70,2013-01-18 12:37:00
5:53 AM,-9.0,-15.0,75,30.78,10.0,NNE,9.2,-,N/A,,Scattered Clouds,30,2013-01-18 12:53:00
6:02 AM,-9.4,-14.8,77,30.45,10.0,NNE,9.2,-,N/A,,Mostly Cloudy,20,2013-01-18 13:02:00
6:43 AM,-9.4,-13.0,84,30.44,10.0,Calm,Calm,-,N/A,,Scattered Clouds,0,2013-01-18 13:43:00
6:53 AM,-9.9,-15.0,78,30.79,10.0,North,3.5,-,N/A,,Clear,10,2013-01-18 13:53:00
7:53 AM,-9.0,-14.1,79,30.79,10.0,Calm,Calm,-,N/A,,Clear,0,2013-01-18 14:53:00
8:53 AM,-9.0,-13.0,83,30.82,10.0,NNE,6.9,-,N/A,,Clear,20,2013-01-18 15:53:00
9:53 AM,-2.0,-8.0,76,30.82,10.0,North,6.9,-,N/A,,Clear,10,2013-01-18 16:53:00
10:53 AM,-0.0,-5.1,79,30.79,10.0,NNE,3.5,-,N/A,,Clear,20,2013-01-18 17:53:00
11:53 AM,3.0,-2.0,80,30.76,10.0,North,6.9,-,N/A,,Clear,360,2013-01-18 18:53:00
12:53 PM,6.1,-0.0,76,30.75,10.0,North,4.6,-,N/A,,Clear,360,2013-01-18 19:53:00
1:53 PM,10.0,1.9,70,30.70,10.0,NNE,3.5,-,N/A,,Clear,20,2013-01-18 20:53:00
2:53 PM,10.9,3.9,73,30.70,10.0,North,3.5,-,N/A,,Clear,360,2013-01-18 21:53:00
3:53 PM,7.0,1.0,77,30.72,10.0,NNW,4.6,-,N/A,,Clear,340,2013-01-18 22:53:00
4:53 PM,6.1,-0.9,73,30.72,10.0,Calm,Calm,-,N/A,,Clear,0,2013-01-18 23:53:00
5:53 PM,3.0,-2.0,80,30.74,10.0,North,5.8,-,N/A,,Clear,360,2013-01-19 00:53:00
6:53 PM,-2.0,-6.0,83,30.76,10.0,North,3.5,-,N/A,,Clear,350,2013-01-19 01:53:00
7:53 PM,1.0,-4.0,79,30.74,10.0,North,4.6,-,N/A,,Clear,350,2013-01-19 02:53:00
8:53 PM,-0.9,-5.1,83,30.76,10.0,Calm,Calm,-,N/A,,Clear,0,2013-01-19 03:53:00
9:53 PM,-6.0,-9.9,83,30.77,10.0,NNE,9.2,-,N/A,,Clear,20,2013-01-19 04:53:00
10:53 PM,-2.0,-7.1,79,30.75,10.0,ENE,5.8,-,N/A,,Clear,70,2013-01-19 05:53:00
11:53 PM,-2.9,-7.1,82,30.75,10.0,North,4.6,-,N/A,,Clear,350,2013-01-19 06:53:00